• Em Portugal
  • Lista de países
  • Para 7 dias
  • Temperatura da água
  • Mapas de satélite
  • Mapa do tempo
  • Widgets de tempo
  • user-avatar
    Iniciar Sessão

    Previsão horária em Nadżaf

    Hoje, 20 Janeiro, Sábado

    Tempo Temperatura Precipitação Vento Pressão Humidade
    00:00 +14°C° 0 mm 7 m/s 751 mmHg 31%
    01:00 +12°C° 0 mm 7 m/s 751 mmHg 33%
    02:00 +13°C° 0 mm 6 m/s 751 mmHg 35%
    03:00 +11°C° 0 mm 6 m/s 752 mmHg 38%
    04:00 +10°C° 0 mm 6 m/s 752 mmHg 41%
    05:00 +10°C° 0 mm 5 m/s 753 mmHg 43%
    06:00 +9°C° 0 mm 5 m/s 753 mmHg 46%
    07:00 +10°C° 0 mm 6 m/s 754 mmHg 44%
    08:00 +10°C° 0 mm 7 m/s 754 mmHg 43%
    09:00 +11°C° 0 mm 9 m/s 754 mmHg 40%
    10:00 +12°C° 0 mm 8 m/s 755 mmHg 38%
    11:00 +12°C° 0 mm 8 m/s 755 mmHg 37%
    12:00 +13°C° 0 mm 8 m/s 755 mmHg 35%
    13:00 +15°C° 0 mm 8 m/s 755 mmHg 35%
    14:00 +15°C° 0 mm 7 m/s 755 mmHg 35%
    15:00 +15°C° 0 mm 7 m/s 755 mmHg 34%
    16:00 +15°C° 0 mm 6 m/s 755 mmHg 37%
    17:00 +14°C° 0 mm 5 m/s 755 mmHg 40%
    18:00 +13°C° 0 mm 4 m/s 756 mmHg 43%
    19:00 +13°C° 0 mm 4 m/s 756 mmHg 45%
    20:00 +12°C° 0 mm 3 m/s 757 mmHg 48%
    21:00 +12°C° 0 mm 3 m/s 757 mmHg 51%
    22:00 +11°C° 0 mm 3 m/s 757 mmHg 53%
    23:00 +11°C° 0 mm 3 m/s 758 mmHg 54%

    Amanhã, 21 Janeiro, Domingo

    Tempo Temperatura Precipitação Vento Pressão Humidade
    00:00 +11°C° 0 mm 3 m/s 758 mmHg 56%
    01:00 +10°C° 0 mm 3 m/s 758 mmHg 58%
    02:00 +10°C° 0 mm 3 m/s 758 mmHg 59%
    03:00 +10°C° 0 mm 3 m/s 758 mmHg 60%
    04:00 +9°C° 0 mm 3 m/s 758 mmHg 61%
    05:00 +9°C° 0 mm 3 m/s 758 mmHg 62%
    06:00 +9°C° 0 mm 3 m/s 759 mmHg 64%
    07:00 +10°C° 0 mm 3 m/s 759 mmHg 61%
    08:00 +10°C° 0 mm 3 m/s 759 mmHg 58%
    09:00 +11°C° 0 mm 3 m/s 759 mmHg 55%
    10:00 +12°C° 0 mm 3 m/s 759 mmHg 50%
    11:00 +13°C° 0 mm 3 m/s 759 mmHg 45%
    12:00 +16°C° 0 mm 2 m/s 759 mmHg 40%
    13:00 +16°C° 0 mm 2 m/s 758 mmHg 38%
    14:00 +17°C° 0 mm 3 m/s 758 mmHg 35%
    15:00 +18°C° 0 mm 3 m/s 757 mmHg 32%
    16:00 +17°C° 0 mm 2 m/s 757 mmHg 34%
    17:00 +16°C° 0 mm 2 m/s 757 mmHg 36%
    18:00 +15°C° 0 mm 2 m/s 757 mmHg 38%
    19:00 +14°C° 0 mm 2 m/s 757 mmHg 40%
    20:00 +14°C° 0 mm 1 m/s 757 mmHg 42%
    21:00 +13°C° 0 mm 1 m/s 757 mmHg 44%
    22:00 +13°C° 0 mm 1 m/s 757 mmHg 45%
    23:00 +12°C° 0 mm 1 m/s 756 mmHg 47%

    Depois de amanhã, 22 Janeiro, Segunda-feira

    Tempo Temperatura Precipitação Vento Pressão Humidade
    00:00 +11°C° 0 mm 1 m/s 756 mmHg 49%
    01:00 +11°C° 0 mm 1 m/s 756 mmHg 49%
    02:00 +11°C° 0 mm 1 m/s 755 mmHg 49%
    03:00 +11°C° 0 mm 1 m/s 755 mmHg 50%
    04:00 +11°C° 0 mm 1 m/s 755 mmHg 49%
    05:00 +10°C° 0 mm 1 m/s 755 mmHg 49%
    06:00 +9°C° 0 mm 2 m/s 755 mmHg 49%
    07:00 +10°C° 0 mm 2 m/s 755 mmHg 46%
    08:00 +12°C° 0 mm 2 m/s 755 mmHg 42%
    09:00 +12°C° 0 mm 3 m/s 755 mmHg 38%
    10:00 +14°C° 0 mm 4 m/s 754 mmHg 34%
    11:00 +17°C° 0 mm 4 m/s 754 mmHg 29%
    12:00 +19°C° 0 mm 5 m/s 753 mmHg 24%
    13:00 +19°C° 0 mm 5 m/s 752 mmHg 22%
    14:00 +20°C° 0 mm 6 m/s 751 mmHg 20%
    15:00 +21°C° 0 mm 6 m/s 750 mmHg 18%
    16:00 +20°C° 0 mm 6 m/s 750 mmHg 19%
    17:00 +19°C° 0 mm 5 m/s 750 mmHg 20%
    18:00 +17°C° 0 mm 5 m/s 750 mmHg 21%
    19:00 +17°C° 0 mm 5 m/s 750 mmHg 21%
    20:00 +16°C° 0 mm 6 m/s 750 mmHg 22%
    21:00 +16°C° 0 mm 6 m/s 750 mmHg 22%
    22:00 +16°C° 0 mm 6 m/s 750 mmHg 22%
    23:00 +15°C° 0 mm 5 m/s 749 mmHg 22%

    23 Janeiro, Terça-feira

    Tempo Temperatura Precipitação Vento Pressão Humidade
    00:00 +15°C° 0 mm 5 m/s 749 mmHg 22%
    01:00 +15°C° 0 mm 5 m/s 749 mmHg 23%
    02:00 +14°C° 0 mm 4 m/s 748 mmHg 23%
    03:00 +14°C° 0 mm 4 m/s 748 mmHg 23%
    04:00 +14°C° 0 mm 4 m/s 748 mmHg 24%
    05:00 +13°C° 0 mm 4 m/s 747 mmHg 24%
    06:00 +13°C° 0 mm 5 m/s 747 mmHg 25%
    07:00 +14°C° 0 mm 5 m/s 748 mmHg 24%
    08:00 +14°C° 0 mm 5 m/s 748 mmHg 23%
    09:00 +15°C° 0 mm 5 m/s 748 mmHg 21%
    10:00 +17°C° 0 mm 5 m/s 748 mmHg 20%
    11:00 +19°C° 0 mm 4 m/s 748 mmHg 18%
    12:00 +21°C° 0 mm 3 m/s 747 mmHg 17%
    13:00 +21°C° 0 mm 3 m/s 747 mmHg 16%
    14:00 +22°C° 0 mm 3 m/s 747 mmHg 16%
    15:00 +24°C° 0 mm 3 m/s 746 mmHg 15%
    16:00 +21°C° 0 mm 3 m/s 747 mmHg 17%
    17:00 +20°C° 0 mm 3 m/s 747 mmHg 18%
    18:00 +19°C° 0 mm 3 m/s 747 mmHg 19%
    19:00 +18°C° 0 mm 2 m/s 748 mmHg 20%
    20:00 +18°C° 0 mm 2 m/s 748 mmHg 20%
    21:00 +17°C° 0 mm 2 m/s 749 mmHg 21%
    22:00 +17°C° 0 mm 3 m/s 749 mmHg 22%
    23:00 +17°C° 0 mm 3 m/s 749 mmHg 24%

    24 Janeiro, Quarta-feira

    Tempo Temperatura Precipitação Vento Pressão Humidade
    00:00 +17°C° 0 mm 4 m/s 750 mmHg 25%
    01:00 +15°C° 0 mm 4 m/s 750 mmHg 31%
    02:00 +15°C° 0 mm 4 m/s 750 mmHg 37%
    03:00 +14°C° 0 mm 4 m/s 750 mmHg 43%
    04:00 +14°C° 0 mm 4 m/s 750 mmHg 46%
    05:00 +13°C° 0 mm 3 m/s 751 mmHg 49%
    06:00 +13°C° 0 mm 3 m/s 751 mmHg 53%
    07:00 +13°C° 0 mm 4 m/s 752 mmHg 52%
    08:00 +14°C° 0 mm 4 m/s 752 mmHg 51%
    09:00 +15°C° 0 mm 4 m/s 753 mmHg 50%
    10:00 +17°C° 0 mm 4 m/s 753 mmHg 46%
    11:00 +18°C° 0 mm 4 m/s 753 mmHg 42%
    12:00 +19°C° 0 mm 3 m/s 753 mmHg 39%
    13:00 +19°C° 0 mm 3 m/s 753 mmHg 36%
    14:00 +20°C° 0 mm 3 m/s 752 mmHg 34%
    15:00 +20°C° 0 mm 3 m/s 752 mmHg 32%
    16:00 +19°C° 0 mm 3 m/s 752 mmHg 33%
    17:00 +19°C° 0 mm 2 m/s 752 mmHg 34%
    18:00 +18°C° 0 mm 2 m/s 752 mmHg 36%
    19:00 +18°C° 0 mm 1 m/s 753 mmHg 38%
    20:00 +16°C° 0 mm 1 m/s 753 mmHg 39%
    21:00 +15°C° 0 mm 1 m/s 753 mmHg 41%
    22:00 +15°C° 0 mm 1 m/s 753 mmHg 42%
    23:00 +15°C° 0 mm 1 m/s 753 mmHg 43%

    25 Janeiro, Quinta-feira

    Tempo Temperatura Precipitação Vento Pressão Humidade
    00:00 +14°C° 0 mm 1 m/s 753 mmHg 44%
    01:00 +14°C° 0 mm 1 m/s 753 mmHg 45%
    02:00 +14°C° 0 mm 1 m/s 753 mmHg 46%
    03:00 +13°C° 0 mm 1 m/s 753 mmHg 47%
    04:00 +13°C° 0 mm 1 m/s 753 mmHg 48%
    05:00 +13°C° 0 mm 1 m/s 753 mmHg 49%
    06:00 +13°C° 0 mm 1 m/s 753 mmHg 49%
    07:00 +14°C° 0 mm 1 m/s 753 mmHg 46%
    08:00 +15°C° 0 mm 2 m/s 754 mmHg 43%
    09:00 +16°C° 0 mm 2 m/s 754 mmHg 40%
    10:00 +17°C° 0 mm 2 m/s 754 mmHg 37%
    11:00 +19°C° 0 mm 3 m/s 753 mmHg 33%
    12:00 +20°C° 0 mm 3 m/s 753 mmHg 30%
    13:00 +21°C° 0 mm 3 m/s 752 mmHg 29%
    14:00 +21°C° 0 mm 3 m/s 752 mmHg 28%
    15:00 +22°C° 0 mm 4 m/s 751 mmHg 27%
    16:00 +21°C° 0 mm 3 m/s 751 mmHg 28%
    17:00 +20°C° 0 mm 3 m/s 751 mmHg 29%
    18:00 +19°C° 0 mm 3 m/s 751 mmHg 31%
    19:00 +19°C° 0 mm 3 m/s 751 mmHg 31%
    20:00 +18°C° 0 mm 3 m/s 752 mmHg 32%
    21:00 +18°C° 0 mm 3 m/s 752 mmHg 33%
    22:00 +17°C° 0 mm 3 m/s 752 mmHg 34%
    23:00 +17°C° 0 mm 3 m/s 751 mmHg 34%
    Mostrar mais